Regional Weather Roundup
Issued by NWS Charleston, SC

Home | Current Version | Previous Version | Text Only | Print | Product List | Glossary On
Versions: 1 2 3 4 5 6 7 8 9 10 11 12 13 14 15 16 17 18 19 20 21 22 23 24 25 26 27 28 29 30 31 32 33 34 35 36 37 38 39 40 41 42 43 44 45 46 47 48 49 50
000
ASUS42 KCHS 241012
RWRCHS

Regional Weather Roundup
National Weather Service Charleston SC
500 AM EST WED JAN 24 2018

NOTE: "fair" indicates few or no clouds below 12,000 feet with no
significant weather and/or obstructions to visibility.

Not all stations are quality controlled. Use data with caution,
especially dewpoint observations.

SCZ027-030-031-034>040-042>050-241100-
...Southeast South Carolina...

CITY           SKY/WX    TMP DP  RH WIND       PRES   REMARKS
N Charleston   FAIR      43  33  68 W3        30.13R
Waterfront Prk   N/A     48  34  58 VRB2      29.97R
Mount Pleasant FAIR      39  36  87 CALM      30.13R
Johns Island   FAIR      39  36  87 CALM      30.14R
Pinopolis        N/A     46  37  71 W5        30.03R
Moncks Corner  FAIR      36  32  87 CALM      30.12R
Summerville    FAIR      37  34  87 CALM      30.14R
Beaufort MCAS  FAIR      39  34  82 SW6       30.15R WCI  35
Beaufort Arpt  FAIR      43  34  70 W7        30.14S
Hilton Head Is FAIR      46  32  57 W3        30.16R
Walterboro     FAIR      37  32  81 CALM      30.15R
Allendale      FAIR      39  32  75 CALM      30.13R

...Southern Midlands and Pee Dee...

CITY           SKY/WX    TMP DP  RH WIND       PRES   REMARKS
Georgetown     FAIR      36  36 100 CALM      30.12R
Kingstree      FAIR      34  32  93 CALM      30.11R
Orangeburg     FAIR      42  31  64 W3        30.12R
Barnwell         N/A     39  34  81 CALM      30.13R
Aiken          FAIR      36  30  80 W3        30.15R
Manning        FAIR      37  19  48 MISG      30.12R
Columbia       FAIR      39  32  76 W6        30.11R WCI  35
Sumter         FAIR      41  31  66 NW5       30.08R
Florence       FAIR      41  32  70 W6        30.10R
Myrtle Beach   FAIR      41  34  76 W3        30.12R
N Myrtle Beach FAIR      39  36  89 CALM      30.09R

$$

GAZ063-065-086>088-099>101-113>116-118-119-134>141-150-241100-
...Southeast Georgia...

CITY           SKY/WX    TMP DP  RH WIND       PRES   REMARKS
Savannah Arpt  FAIR      41  33  73 W3        30.17R
Hunter AAF     FAIR      40  31  71 NW5       30.14R WCI  37
Fort Stewart   FAIR      39  33  77 CALM      30.15R
Statesboro     FAIR      43  30  61 NW6       30.15R
Sylvania       FAIR      39  34  80 NW5       30.15R WCI  36
Claxton        FAIR      44  34  69 CALM      30.17R

...CSRA, Central and far Southeast Georgia...

CITY           SKY/WX    TMP DP  RH WIND       PRES   REMARKS
Thomson        FAIR      34  29  81 N3        30.19R
Augusta-Bush   FAIR      36  30  79 CALM      30.14R
Augusta-Daniel FAIR      41  30  65 VRB3      30.13R
Swainsboro     FAIR      37  34  87 NW5       30.16S WCI  34
Vidalia        FAIR      43  34  70 NW5       30.16R
Eastman        FAIR      40  27  58 CALM      30.20R
Hazlehurst     FAIR      44  28  54 CALM      30.17R
Alma           FAIR      37  33  85 CALM      30.18R
Waycross       FAIR      41  33  74 CALM      30.18S
Jesup          FAIR      39  34  81 CALM      30.18R
Baxley         FAIR      41  32  70 NW3       30.17R
Brunswick      FAIR      43  34  70 CALM      30.18R
Saint Simons   FAIR      48  36  63 NW6       30.16S

$$

SCZ027-028-034-036>038-045-046-048>050-GAZ119-141-241100-
...Lake and Supplemental Coastal Observations...

STATION/POSITION TIME  TEMP    WIND        PRES    WAVE   SWELL
                       AIR SEA DIR/SP/G            HT/PER HT/PER/DIR
                 (UTC) (F)     (DEG/KT/KT) (MB)    (FT/S) (FT/S/D)
Winyah Bay       NOT AVBL
Lake Murray      0920   42     300/  4/  7 1018.6R
ACE Basin NERRS  0845   42        CALM     1019.0
Fort Pulaski     0948   47 48  290/  4/  6 1021.4R
Sapelo Island    0900   47     290/  4     1021.0

$$

ANZ835-935-AMZ111-154-330-350-352-354-370-450-454-472-241100-
...C-MAN and Buoy Observations...

STATION/POSITION TIME  TEMP    WIND        PRES    WAVE   SWELL
                       AIR SEA DIR/SP/G            HT/PER HT/PER/DIR
                 (UTC) (F)     (DEG/KT/KT) (MB)    (FT/S) (FT/S/D)
Buoy 41004       0950   56 69  320/ 14/ 17 1019.3R   4/ 4   2/140/ 8
Buoy 41008       0950   50 50  280/  8/ 10 1020.8F   2/ 8   2/100/ 8
Folly Beach CMAN 0900   47     260/  4/  5 1020.0R
Capers Nearshore 0908   47 52  290/  8/ 10 1019.2R
Fripp Nearshore  0908   46 48  290/  6/ 10 1019.4R


STATION/POSITION TIME  TEMP    WIND        PRES    WAVE   SWELL
                       AIR SEA DIR/SP/G            HT/PER HT/PER/DIR
                 (UTC) (F)     (DEG/KT/KT) (MB)    (FT/S) (FT/S/D)
5E St. Marys GA  0930      51                N/A     2/ 7
Frying Pan Buoy  0950   55 60  330/ 16/ 19 1018.2R   5/ 8   5/170/ 8
Buoy 41025       0950   56 69  320/ 21/ 27 1016.2R   6/ 8   3/180/ 8
Cape Lookout NC  0900          300/  9/ 10 1017.0R
Buoy 41002       0950   69 70  300/ 19/ 23 1016.2R   8/ 8
Buoy 41010       NOT AVBL
St Augustine FL  1000   51 53  330/  8/ 10 1021.7R


$$



USA.gov is the U.S. government's official web portal to all federal, state and local government web resources and services.